Location: Casteau
(50.5142°N, 4.0161°E)
Time: 14:54:21
(UTC+00:00)

Explorer 11/Cluster Stage 4 - Pass Details

Date: 04 August 2021
Orbit: 467 x 1256 km, 28.8° (Epoch: 23 September)

Event Time Altitude Azimuth Distance (km) Brightness Sun altitude
Rises 09:16:43 0° 230° (SW) 4,061 10.1 44.7°
Reaches altitude 10° 09:21:08 10° 208° (SSW) 3,182 9.9 45.3°
Maximum altitude 09:25:03 14° 179° (S) 2,894 10.1 45.8°
Drops below altitude 10° 09:29:00 10° 150° (SSE) 3,222 10.6 46.3°
Sets 09:33:31 0° 128° (SE) 4,146 11.0 46.9°
